QPF
0.00 0.00 0.00 0.00 0.00 0.00 0.00 0.00 0.00 0.00 0.00 0.00 0.00 0.00 0.00 0.00 0.00 0.00 0.00 0.00 0.00 0.00 0.00 0.00 0.00 0.00 0.00 0.03 0.09 0.13 0.16 0.18 0.20 0.21 0.16 0.08 0.03 0.01 0.00 0.00 0.00 0.00 0.00 0.00
0.00 0.00 0.00 0.00 0.00 0.00 0.00 0.00 0.00 0.00 0.00 0.00 0.00 0.00 0.00 0.00 0.00 0.00 0.00 0.00 0.00 0.00 0.00 0.00 0.00 0.00 0.00 0.01 0.03 0.06 0.18 0.20 0.18 0.14 0.11 0.07 0.04 0.02 0.00 0.00 0.00 0.00 0.00 0.00
0.00 0.00 0.00 0.00 0.00 0.00 0.00 0.00 0.00 0.00 0.00 0.00 0.00 0.00 0.00 0.00 0.00 0.00 0.00 0.00 0.00 0.00 0.00 0.00 0.00 0.00 0.00 0.01 0.03 0.07 0.16 0.25 0.24 0.18 0.16 0.09 0.10 0.07 0.03 0.01 0.01 0.00 0.00 0.00
0.01 0.01 0.02 0.00 0.00 0.00 0.00 0.00 0.00 0.00 0.00 0.00 0.00 0.00 0.00 0.00 0.00 0.00 0.00 0.00 0.00 0.00 0.00 0.00 0.00 0.00 0.00 0.00 0.02 0.04 0.06 0.07 0.14 0.24 0.13 0.03 0.00 0.00 0.00 0.00 0.00 0.00 0.00 0.00
0.02 0.01 0.00 0.00 0.00 0.00 0.00 0.00 0.00 0.00 0.00 0.00 0.00 0.00 0.00 0.00 0.00 0.00 0.00 0.00 0.00 0.00 0.00 0.00 0.00 0.00 0.02 0.04 0.04 0.03 0.03 0.05 0.06 0.08 0.06 0.03 0.02 0.02 0.01 0.00 0.00 0.00 0.00 0.00
0.02 0.04 0.01 0.00 0.00 0.00 0.00 0.00 0.00 0.00 0.00 0.00 0.00 0.00 0.00 0.00 0.00 0.00 0.00 0.00 0.00 0.00 0.00 0.00 0.00 0.01 0.05 0.08 0.08 0.09 0.07 0.07 0.05 0.07 0.04 0.06 0.08 0.03 0.01 0.01 0.00 0.00 0.00 0.00
0.00 0.03 0.01 0.00 0.00 0.00 0.01 0.01 0.00 0.00 0.00 0.00 0.00 0.00 0.00 0.00 0.00 0.00 0.00 0.00 0.00 0.00 0.00 0.00 0.00 0.01 0.06 0.09 0.11 0.09 0.07 0.05 0.03 0.05 0.07 0.08 0.07 0.05 0.03 0.01 0.00 0.00 0.00 0.00
0.00 0.01 0.01 0.00 0.00 0.00 0.00 0.00 0.00 0.00 0.00 0.00 0.00 0.00 0.00 0.00 0.00 0.00 0.00 0.00 0.00 0.00 0.00 0.00 0.00 0.00 0.05 0.12 0.15 0.13 0.12 0.13 0.18 0.23 0.27 0.24 0.13 0.03 0.00 0.00 0.00 0.00 0.00 0.00
0.00 0.00 0.00 0.00 0.00 0.00 0.00 0.00 0.00 0.00 0.00 0.00 0.00 0.00 0.00 0.00 0.00 0.00 0.00 0.00 0.00 0.00 0.00 0.00 0.01 0.01 0.06 0.15 0.15 0.17 0.20 0.23 0.26 0.27 0.21 0.12 0.04 0.02 0.00 0.00 0.00 0.00 0.00 0.00
0.00 0.00 0.00 0.00 0.00 0.00 0.00 0.00 0.00 0.00 0.00 0.00 0.00 0.00 0.00 0.00 0.00 0.00 0.00 0.00 0.00 0.00 0.00 0.01 0.02 0.07 0.13 0.18 0.20 0.20 0.23 0.24 0.21 0.16 0.09 0.03 0.01 0.00 0.00 0.00 0.00 0.00 0.00 0.00
0.00 0.00 0.00 0.00 0.00 0.00 0.00 0.00 0.00 0.00 0.00 0.00 0.00 0.00 0.00 0.00 0.00 0.00 0.00 0.00 0.00 0.00 0.02 0.04 0.07 0.13 0.16 0.16 0.15 0.16 0.17 0.14 0.11 0.07 0.03 0.01 0.00 0.00 0.00 0.00 0.00 0.00 0.00 0.00
0.06 0.04 0.06 0.06 0.02 0.01 0.01 0.00 0.00 0.00 0.00 0.00 0.00 0.00 0.00 0.00 0.00 0.00 0.00 0.00 0.00 0.02 0.04 0.07 0.09 0.13 0.16 0.14 0.08 0.07 0.09 0.08 0.05 0.02 0.00 0.00 0.00 0.00 0.00 0.00 0.00 0.00 0.00 0.00
0.18 0.18 0.17 0.12 0.05 0.02 0.03 0.04 0.03 0.02 0.01 0.00 0.00 0.00 0.00 0.00 0.00 0.00 0.00 0.00 0.01 0.04 0.08 0.09 0.12 0.13 0.10 0.06 0.06 0.08 0.07 0.05 0.01 0.00 0.00 0.00 0.00 0.00 0.00 0.00 0.00 0.00 0.00 0.00
0.11 0.16 0.16 0.05 0.02 0.02 0.05 0.06 0.07 0.07 0.04 0.01 0.00 0.00 0.00 0.00 0.00 0.00 0.00 0.02 0.04 0.08 0.12 0.14 0.11 0.06 0.08 0.09 0.08 0.06 0.03 0.01 0.00 0.00 0.00 0.00 0.00 0.00 0.00 0.00 0.00 0.00 0.00 0.00
0.00 0.02 0.09 0.12 0.07 0.03 0.05 0.07 0.11 0.12 0.07 0.04 0.01 0.00 0.00 0.00 0.00 0.01 0.02 0.05 0.07 0.09 0.13 0.10 0.06 0.07 0.08 0.07 0.04 0.02 0.00 0.00 0.00 0.00 0.00 0.00 0.00 0.00 0.00 0.00 0.00 0.00 0.00 0.00
0.01 0.00 0.01 0.07 0.07 0.02 0.02 0.06 0.09 0.14 0.11 0.02 0.01 0.01 0.01 0.00 0.01 0.03 0.06 0.09 0.08 0.11 0.08 0.06 0.08 0.09 0.07 0.03 0.01 0.00 0.00 0.00 0.00 0.00 0.00 0.00 0.00 0.00 0.00 0.00 0.00 0.00 0.00 0.00
0.05 0.07 0.08 0.03 0.02 0.01 0.01 0.03 0.06 0.06 0.02 0.02 0.03 0.01 0.01 0.02 0.03 0.05 0.10 0.14 0.12 0.09 0.08 0.09 0.08 0.06 0.02 0.00 0.00 0.00 0.00 0.00 0.00 0.00 0.00 0.00 0.00 0.00 0.00 0.00 0.00 0.00 0.00 0.00
0.06 0.09 0.06 0.01 0.01 0.01 0.02 0.03 0.02 0.00 0.01 0.01 0.02 0.03 0.04 0.03 0.06 0.12 0.16 0.11 0.08 0.07 0.06 0.04 0.02 0.00 0.00 0.00 0.00 0.00 0.00 0.00 0.00 0.00 0.00 0.00 0.00 0.00 0.00 0.00 0.00 0.00 0.00 0.00
0.02 0.04 0.02 0.01 0.00 0.00 0.00 0.01 0.01 0.02 0.04 0.05 0.04 0.06 0.07 0.10 0.12 0.13 0.07 0.03 0.02 0.03 0.02 0.00 0.00 0.00 0.00 0.00 0.00 0.00 0.00 0.00 0.00 0.00 0.00 0.00 0.00 0.00 0.00 0.00 0.00 0.00 0.00 0.00
0.00 0.03 0.04 0.03 0.02 0.02 0.03 0.04 0.04 0.06 0.10 0.08 0.06 0.07 0.09 0.11 0.08 0.03 0.02 0.01 0.00 0.00 0.00 0.00 0.00 0.00 0.00 0.00 0.00 0.00 0.00 0.00 0.00 0.00 0.00 0.00 0.00 0.00 0.00 0.00 0.00 0.00 0.00 0.00
0.00 0.00 0.02 0.04 0.04 0.05 0.06 0.10 0.06 0.04 0.08 0.08 0.07 0.09 0.05 0.04 0.02 0.00 0.00 0.00 0.00 0.00 0.00 0.00 0.00 0.00 0.00 0.00 0.00 0.00 0.00 0.00 0.00 0.00 0.00 0.00 0.00 0.00 0.00 0.00 0.00 0.00 0.00 0.00
0.00 0.00 0.00 0.01 0.00 0.01 0.04 0.06 0.03 0.03 0.05 0.07 0.04 0.02 0.01 0.00 0.00 0.00 0.00 0.00 0.00 0.00 0.00 0.00 0.00 0.00 0.00 0.00 0.00 0.00 0.00 0.00 0.00 0.00 0.00 0.00 0.00 0.00 0.00 0.00 0.00 0.00 0.00 0.00
0.00 0.00 0.00 0.00 0.00 0.01 0.01 0.01 0.01 0.00 0.01 0.00 0.00 0.00 0.00 0.00 0.00 0.00 0.00 0.00 0.00 0.00 0.00 0.00 0.00 0.00 0.00 0.00 0.00 0.00 0.00 0.00 0.00 0.00 0.00 0.00 0.00 0.00 0.00 0.00 0.00 0.00 0.00 0.00
0.00 0.00 0.00 0.00 0.00 0.00 0.00 0.00 0.00 0.00 0.00 0.00 0.00 0.00 0.00 0.00 0.00 0.00 0.00 0.00 0.00 0.00 0.00 0.00 0.00 0.00 0.00 0.00 0.00 0.00 0.00 0.00 0.00 0.00 0.00 0.00 0.00 0.00 0.00 0.00 0.00 0.00 0.00 0.00
0.00 0.00 0.00 0.00 0.00 0.00 0.00 0.00 0.00 0.00 0.00 0.00 0.00 0.00 0.00 0.00 0.00 0.00 0.00 0.00 0.00 0.00 0.00 0.00 0.00 0.00 0.00 0.00 0.00 0.00 0.00 0.00 0.00 0.00 0.00 0.00 0.00 0.00 0.00 0.00 0.00 0.00 0.00 0.00
0.00 0.00 0.00 0.00 0.00 0.00 0.00 0.00 0.00 0.00 0.00 0.00 0.00 0.00 0.00 0.00 0.00 0.00 0.00 0.00 0.00 0.00 0.00 0.00 0.00 0.00 0.00 0.00 0.00 0.00 0.00 0.00 0.00 0.00 0.00 0.00 0.00 0.00 0.00 0.00 0.00 0.00 0.00 0.00
0.00 0.00 0.00 0.00 0.00 0.00 0.00 0.00 0.00 0.00 0.00 0.00 0.00 0.00 0.00 0.00 0.00 0.00 0.00 0.00 0.00 0.00 0.00 0.00 0.00 0.00 0.00 0.00 0.00 0.00 0.00 0.00 0.00 0.00 0.00 0.00 0.00 0.00 0.00 0.00 0.00 0.00 0.00 0.00
MSLP
1023.43 1023.38 1023.09 1021.87 1021.08 1021.98 1021.74 1020.76 1020.13 1016.50 1016.77 1014.67 1014.39 1014.37 1014.07 1014.31 1014.41 1014.32 1014.13 1013.97 1013.45 1012.84 1011.98 1011.14 1010.40 1009.73 1009.47 1009.45 1009.87 1010.03 1009.92 1009.74 1009.62 1009.66 1010.06 1011.12 1011.17 1012.61 1013.00 1013.46 1013.35 1013.03 1014.24 1015.07
1023.28 1024.09 1023.20 1021.39 1021.06 1021.04 1020.26 1019.41 1017.97 1016.96 1015.47 1014.36 1014.35 1014.08 1014.11 1014.39 1014.39 1014.27 1014.12 1013.92 1013.62 1013.01 1012.35 1011.36 1010.44 1009.57 1009.29 1009.75 1009.92 1010.19 1010.74 1011.01 1011.55 1011.45 1011.17 1012.49 1012.63 1013.25 1013.85 1013.78 1014.41 1014.07 1015.11 1015.61
1023.15 1024.16 1022.99 1020.93 1019.83 1019.24 1018.55 1017.74 1017.38 1016.46 1015.30 1014.79 1014.22 1014.08 1014.32 1014.40 1014.42 1014.27 1014.17 1014.03 1013.72 1013.21 1012.65 1011.89 1010.52 1009.38 1009.46 1009.98 1010.40 1010.62 1011.02 1010.99 1011.75 1012.37 1012.31 1013.47 1014.02 1014.29 1014.88 1015.22 1014.51 1015.46 1016.02 1016.66
1024.31 1024.12 1022.24 1019.76 1019.45 1018.83 1017.75 1016.88 1016.48 1015.82 1014.93 1014.65 1014.28 1014.20 1014.39 1014.22 1014.29 1014.18 1014.15 1013.94 1013.72 1013.42 1012.90 1012.29 1011.42 1010.74 1010.63 1010.92 1011.20 1011.51 1011.85 1012.35 1012.81 1013.15 1014.38 1014.46 1014.80 1015.06 1015.74 1016.29 1016.58 1016.67 1016.68 1017.30
1025.29 1023.51 1021.09 1019.84 1018.88 1017.70 1017.05 1016.32 1016.21 1015.45 1014.67 1014.43 1014.25 1014.52 1014.42 1014.39 1014.28 1014.19 1014.14 1014.00 1013.92 1013.70 1013.32 1012.85 1012.55 1012.24 1012.20 1012.38 1012.81 1012.99 1013.30 1014.03 1014.44 1014.84 1015.46 1015.77 1016.12 1016.85 1017.30 1017.03 1017.26 1017.12 1018.20 1018.21
1024.68 1023.42 1020.63 1019.02 1018.14 1017.53 1017.23 1015.70 1015.61 1015.02 1014.70 1014.66 1014.76 1014.41 1014.22 1014.28 1014.18 1014.00 1014.04 1013.98 1013.95 1013.77 1013.64 1013.46 1013.42 1013.25 1013.28 1013.87 1014.43 1014.88 1015.31 1015.73 1015.93 1016.53 1016.47 1017.15 1017.56 1017.91 1018.18 1018.51 1018.69 1018.42 1018.79 1018.82
1023.40 1022.44 1019.81 1018.00 1017.34 1017.17 1016.96 1015.20 1015.37 1015.26 1015.51 1015.53 1015.41 1015.14 1014.55 1014.31 1014.00 1013.82 1013.78 1013.81 1014.15 1014.26 1014.31 1014.21 1014.35 1014.29 1014.50 1014.81 1015.52 1016.40 1016.62 1016.89 1017.20 1017.47 1018.06 1018.74 1018.98 1019.33 1019.71 1019.77 1019.26 1019.07 1019.30 1019.78
1022.17 1021.11 1018.59 1017.02 1016.75 1016.70 1015.42 1015.06 1015.40 1015.50 1015.19 1015.39 1015.16 1014.71 1014.29 1014.02 1013.82 1013.74 1013.78 1013.95 1014.49 1014.74 1015.00 1015.07 1015.17 1015.48 1015.84 1015.94 1016.62 1016.97 1017.35 1017.88 1018.38 1018.66 1019.08 1019.59 1020.41 1020.70 1020.61 1020.62 1019.91 1019.93 1020.51 1020.70
1021.24 1018.62 1016.83 1016.63 1016.03 1015.59 1015.45 1015.25 1014.93 1014.85 1014.66 1014.74 1014.36 1014.15 1014.05 1013.77 1013.79 1013.79 1014.13 1014.40 1014.95 1015.36 1015.85 1016.25 1016.40 1016.59 1016.72 1017.40 1017.63 1017.83 1018.05 1018.64 1019.24 1019.68 1020.41 1021.27 1021.35 1021.47 1021.43 1021.39 1021.28 1021.38 1021.32 1021.02
1020.12 1017.39 1016.11 1015.87 1015.31 1015.01 1014.93 1014.52 1014.19 1014.06 1014.00 1014.12 1013.90 1013.82 1013.75 1013.85 1013.81 1014.05 1014.56 1015.06 1015.51 1016.16 1016.74 1017.24 1017.62 1017.95 1018.22 1018.59 1018.80 1018.97 1019.42 1019.91 1020.39 1021.08 1021.77 1022.10 1021.94 1022.23 1021.89 1021.78 1022.51 1022.43 1022.23 1022.16
1018.38 1016.31 1015.39 1015.17 1014.70 1014.07 1013.76 1013.52 1013.38 1013.27 1013.16 1013.17 1013.44 1013.49 1013.63 1013.78 1014.19 1014.83 1015.43 1016.06 1016.66 1017.30 1017.73 1018.27 1018.65 1018.92 1019.50 1019.86 1019.98 1020.20 1020.56 1021.19 1021.66 1021.93 1022.22 1022.56 1022.74 1022.90 1022.75 1023.54 1023.79 1023.52 1023.39 1023.18
1018.13 1017.57 1016.81 1014.98 1014.85 1014.51 1013.56 1012.80 1012.36 1012.34 1012.26 1012.45 1012.82 1013.21 1013.63 1014.40 1014.93 1015.55 1016.36 1017.03 1017.70 1018.50 1018.72 1019.44 1019.85 1020.10 1020.70 1020.87 1020.88 1020.96 1021.59 1022.23 1022.46 1022.65 1023.10 1023.48 1023.81 1023.68 1024.33 1024.47 1024.59 1024.63 1024.65 1024.27
1019.55 1018.48 1017.35 1015.50 1014.39 1013.78 1013.14 1012.76 1012.27 1012.01 1011.68 1011.95 1012.52 1013.32 1013.93 1014.90 1015.64 1016.36 1017.30 1018.13 1018.89 1019.59 1019.97 1020.52 1020.95 1021.30 1021.88 1022.06 1022.24 1022.59 1022.97 1023.24 1023.56 1023.84 1024.26 1024.25 1024.32 1024.54 1024.71 1025.22 1025.31 1025.39 1025.26 1025.18
1019.90 1019.03 1016.25 1014.65 1013.51 1012.75 1012.50 1012.27 1012.05 1012.27 1012.17 1011.77 1012.47 1013.93 1014.87 1015.82 1016.64 1017.46 1018.48 1019.31 1019.96 1020.62 1021.10 1021.67 1021.93 1022.61 1023.26 1023.55 1023.61 1023.84 1024.05 1024.24 1024.53 1024.99 1025.14 1025.18 1025.44 1025.41 1025.57 1025.63 1025.59 1025.59 1025.69 1025.94
1020.00 1019.03 1017.64 1014.93 1012.25 1010.82 1011.16 1011.49 1011.57 1011.69 1011.79 1011.96 1013.32 1014.77 1015.77 1016.79 1017.81 1018.82 1019.79 1020.39 1021.07 1021.74 1022.36 1022.65 1023.25 1023.99 1024.45 1024.57 1024.68 1024.82 1024.94 1025.38 1025.87 1026.10 1026.31 1026.17 1026.29 1026.33 1026.42 1026.55 1026.63 1026.61 1026.40 1026.10
1020.04 1018.87 1016.88 1014.35 1012.72 1011.53 1011.57 1011.78 1011.64 1012.01 1012.44 1013.45 1014.72 1016.06 1017.06 1018.03 1019.11 1020.17 1021.04 1021.75 1022.05 1022.98 1023.69 1024.11 1024.64 1025.31 1025.57 1025.74 1025.70 1025.80 1026.37 1026.86 1026.72 1026.75 1027.12 1027.30 1027.43 1027.45 1027.77 1027.82 1027.72 1027.49 1027.25 1027.33
1021.38 1019.59 1017.60 1015.72 1014.17 1013.24 1012.64 1012.42 1012.93 1013.69 1014.59 1015.46 1016.66 1017.71 1018.64 1019.56 1020.56 1021.62 1022.66 1023.35 1023.78 1024.44 1025.07 1025.50 1026.03 1026.45 1026.53 1026.58 1026.62 1027.01 1027.41 1027.80 1027.86 1027.90 1028.26 1028.62 1028.99 1029.32 1029.26 1028.84 1028.56 1028.64 1028.84 1029.00
1022.49 1021.40 1019.87 1018.52 1017.18 1016.28 1015.68 1015.55 1015.78 1016.27 1016.90 1017.79 1018.66 1019.44 1020.34 1021.16 1022.22 1023.31 1024.10 1024.66 1025.16 1025.79 1026.45 1026.93 1027.27 1027.40 1027.48 1027.56 1027.72 1028.07 1028.49 1028.65 1028.92 1029.44 1030.11 1030.28 1030.16 1029.97 1030.04 1030.12 1030.12 1030.10 1029.81 1029.48
1022.89 1021.96 1021.06 1020.09 1019.34 1018.67 1018.47 1018.35 1018.47 1018.83 1019.42 1019.95 1020.45 1021.33 1022.15 1023.03 1023.78 1024.54 1025.17 1025.75 1026.35 1026.92 1028.00 1028.15 1028.21 1028.34 1028.59 1028.94 1028.97 1029.25 1029.49 1030.11 1030.81 1031.07 1030.96 1031.04 1031.20 1031.51 1031.39 1031.30 1031.27 1031.16 1030.83 1030.12
1023.62 1022.91 1022.29 1021.79 1021.27 1020.85 1020.75 1020.87 1020.90 1021.06 1021.63 1021.80 1022.31 1023.06 1023.92 1024.79 1025.34 1025.91 1026.39 1026.88 1027.74 1028.26 1028.85 1029.12 1029.33 1029.62 1029.88 1030.20 1030.05 1030.47 1031.00 1031.48 1031.70 1032.09 1032.02 1032.20 1032.82 1032.90 1032.52 1032.34 1032.15 1032.13 1031.41 1031.15
1024.40 1023.94 1023.47 1023.19 1022.98 1022.86 1022.75 1022.91 1022.81 1023.01 1023.59 1023.77 1024.15 1024.98 1025.57 1026.31 1026.86 1027.24 1027.57 1028.28 1029.45 1029.74 1029.95 1030.15 1030.33 1030.63 1030.95 1031.11 1031.35 1031.86 1032.31 1032.46 1032.72 1033.13 1033.38 1033.82 1033.90 1033.77 1033.59 1033.37 1033.12 1032.83 1032.64 1031.95
1024.89 1024.83 1024.50 1024.33 1024.28 1024.36 1024.55 1024.49 1024.53 1024.76 1025.05 1025.43 1026.04 1026.57 1027.00 1027.79 1028.36 1028.81 1029.39 1029.65 1030.62 1030.86 1031.01 1031.38 1031.75 1032.23 1032.45 1032.42 1032.66 1032.97 1033.26 1033.69 1034.12 1034.56 1034.87 1034.80 1034.68 1034.66 1034.50 1034.42 1034.24 1033.62 1033.17 1032.43
1025.25 1025.31 1025.40 1025.32 1025.38 1025.62 1025.75 1025.93 1026.19 1026.28 1026.46 1026.95 1027.34 1027.57 1027.82 1028.50 1029.08 1029.47 1030.36 1031.51 1031.71 1032.19 1032.34 1032.78 1033.71 1033.69 1033.68 1033.75 1034.14 1034.31 1034.69 1035.16 1035.60 1035.80 1035.96 1035.89 1035.68 1035.90 1035.43 1035.15 1034.81 1034.41 1033.79 1033.27
1025.59 1025.74 1025.86 1026.09 1026.31 1026.37 1026.68 1027.24 1027.38 1027.76 1028.03 1028.37 1028.55 1028.80 1029.00 1029.62 1030.57 1031.30 1031.90 1032.49 1032.91 1033.33 1033.71 1034.22 1034.74 1034.79 1034.58 1035.03 1035.45 1035.75 1036.11 1036.47 1036.80 1036.75 1036.41 1036.67 1036.85 1036.38 1036.02 1035.94 1035.52 1035.01 1034.63 1034.06
1025.88 1026.15 1026.43 1026.61 1026.83 1027.26 1027.63 1028.03 1028.31 1028.65 1028.95 1029.29 1029.63 1030.07 1030.32 1030.68 1030.95 1032.39 1032.89 1033.68 1034.26 1034.36 1034.77 1035.47 1035.72 1035.89 1035.86 1036.34 1036.72 1036.95 1037.30 1037.51 1037.48 1037.43 1037.41 1037.47 1037.08 1036.98 1036.76 1036.58 1036.27 1035.90 1035.31 1034.72
1025.95 1026.28 1026.63 1027.02 1027.36 1027.82 1028.24 1028.57 1028.88 1029.45 1029.81 1030.33 1030.93 1031.33 1031.67 1032.06 1032.60 1033.16 1033.84 1034.40 1034.75 1035.24 1035.68 1036.33 1036.60 1036.91 1037.12 1037.33 1037.58 1037.76 1037.88 1038.21 1038.33 1038.31 1038.25 1037.91 1037.82 1037.73 1037.57 1037.22 1036.74 1036.33 1035.88 1035.37
1026.29 1026.62 1026.97 1027.41 1027.88 1028.27 1028.59 1028.95 1029.36 1029.89 1030.35 1030.77 1031.38 1032.18 1032.54 1032.98 1033.48 1033.95 1034.53 1035.20 1035.86 1036.37 1037.03 1037.51 1037.69 1037.81 1037.74 1038.01 1038.33 1038.62 1038.91 1039.05 1039.31 1038.97 1038.79 1038.65 1038.58 1038.44 1038.25 1037.75 1037.32 1036.86 1036.38 1035.86
Thickness
5496 5485 5481 5489 5497 5474 5460 5473 5457 5502 5484 5510 5508 5503 5510 5508 5508 5508 5509 5512 5519 5527 5537 5546 5554 5563 5565 5564 5562 5562 5564 5567 5567 5571 5571 5563 5561 5550 5545 5546 5548 5553 5542 5534
5479 5456 5461 5471 5478 5459 5459 5460 5470 5472 5481 5494 5493 5494 5491 5488 5488 5493 5496 5499 5504 5512 5520 5531 5544 5554 5557 5552 5550 5548 5545 5546 5544 5547 5552 5540 5539 5534 5529 5532 5528 5534 5527 5524
5451 5433 5440 5445 5468 5461 5460 5467 5458 5454 5471 5472 5476 5475 5473 5475 5477 5478 5481 5484 5490 5498 5505 5512 5531 5544 5545 5539 5537 5536 5536 5538 5532 5528 5529 5518 5518 5518 5513 5513 5519 5513 5507 5502
5415 5410 5403 5452 5443 5441 5444 5458 5455 5453 5460 5459 5462 5465 5465 5466 5464 5467 5469 5473 5478 5484 5490 5497 5509 5518 5522 5521 5520 5521 5519 5516 5513 5514 5503 5503 5502 5503 5501 5497 5495 5493 5490 5483
5385 5398 5416 5430 5430 5436 5430 5443 5442 5442 5448 5448 5448 5445 5449 5451 5455 5455 5457 5461 5464 5469 5475 5482 5486 5491 5494 5496 5497 5498 5498 5492 5494 5491 5486 5484 5482 5477 5475 5476 5474 5476 5466 5463
5385 5373 5383 5422 5429 5424 5418 5424 5436 5435 5436 5431 5428 5436 5444 5442 5444 5446 5446 5450 5452 5457 5462 5465 5467 5471 5472 5471 5472 5472 5472 5471 5470 5468 5466 5462 5460 5459 5456 5455 5452 5454 5449 5446
5392 5376 5397 5426 5425 5419 5394 5422 5424 5419 5412 5410 5409 5415 5427 5431 5434 5437 5438 5441 5439 5441 5444 5448 5449 5452 5451 5452 5452 5451 5453 5454 5454 5452 5448 5443 5442 5439 5435 5433 5436 5437 5432 5426
5396 5383 5386 5425 5415 5400 5419 5419 5408 5405 5406 5402 5404 5410 5417 5422 5424 5426 5426 5428 5426 5427 5428 5430 5433 5433 5430 5433 5434 5439 5440 5438 5436 5434 5432 5428 5422 5418 5418 5416 5420 5417 5410 5407
5398 5417 5432 5420 5413 5414 5407 5402 5405 5401 5403 5400 5403 5405 5408 5413 5413 5415 5413 5414 5412 5413 5411 5411 5413 5415 5415 5413 5418 5423 5425 5421 5421 5419 5412 5405 5405 5403 5402 5400 5399 5397 5395 5395
5398 5424 5422 5410 5412 5406 5401 5397 5398 5398 5398 5395 5396 5398 5399 5399 5401 5402 5400 5399 5400 5395 5394 5393 5393 5392 5393 5395 5400 5405 5405 5405 5404 5400 5395 5392 5393 5390 5391 5391 5381 5380 5379 5376
5411 5422 5415 5406 5398 5393 5390 5390 5389 5391 5392 5392 5391 5392 5393 5393 5389 5384 5382 5379 5378 5376 5378 5377 5377 5377 5375 5378 5384 5389 5391 5390 5388 5387 5384 5382 5380 5377 5376 5368 5364 5364 5362 5359
5399 5390 5374 5379 5366 5359 5361 5369 5378 5381 5386 5387 5386 5386 5384 5374 5372 5371 5366 5364 5364 5361 5364 5361 5361 5362 5361 5366 5373 5378 5378 5376 5376 5375 5371 5368 5364 5364 5356 5353 5349 5346 5342 5339
5370 5363 5354 5353 5352 5349 5345 5345 5350 5361 5374 5378 5379 5376 5373 5365 5360 5354 5352 5350 5348 5347 5348 5348 5347 5349 5349 5354 5357 5359 5360 5361 5360 5359 5355 5356 5354 5351 5348 5340 5335 5330 5326 5319
5365 5352 5356 5350 5336 5334 5327 5330 5337 5337 5349 5368 5370 5361 5355 5347 5343 5340 5337 5337 5336 5334 5335 5333 5336 5335 5335 5339 5342 5343 5346 5348 5347 5344 5343 5342 5338 5337 5333 5328 5322 5315 5307 5297
5365 5351 5331 5332 5339 5341 5330 5329 5333 5340 5348 5357 5358 5346 5340 5334 5330 5327 5326 5325 5324 5322 5321 5324 5325 5323 5325 5329 5332 5335 5337 5336 5333 5331 5328 5328 5325 5321 5315 5309 5302 5294 5286 5278
5365 5355 5348 5351 5350 5348 5340 5335 5343 5344 5343 5344 5341 5332 5328 5324 5320 5318 5316 5314 5314 5312 5311 5313 5314 5313 5316 5319 5323 5326 5324 5321 5321 5320 5315 5312 5308 5304 5295 5286 5278 5273 5267 5255
5357 5360 5359 5359 5358 5353 5354 5353 5345 5340 5334 5330 5324 5322 5319 5314 5311 5307 5302 5301 5301 5301 5301 5304 5303 5304 5308 5311 5315 5315 5313 5309 5307 5307 5302 5296 5287 5276 5270 5268 5263 5254 5242 5231
5354 5348 5347 5347 5349 5345 5341 5336 5332 5327 5324 5320 5317 5314 5310 5307 5301 5296 5293 5293 5294 5293 5293 5294 5295 5298 5301 5304 5306 5304 5300 5300 5297 5289 5278 5271 5268 5266 5258 5250 5241 5229 5221 5214
5356 5352 5348 5348 5346 5341 5334 5330 5326 5323 5319 5315 5312 5307 5303 5299 5296 5294 5294 5292 5289 5288 5285 5288 5291 5292 5293 5292 5293 5292 5290 5283 5273 5268 5268 5264 5257 5245 5237 5229 5220 5212 5202 5195
5353 5353 5350 5344 5341 5338 5332 5326 5322 5319 5313 5311 5309 5305 5300 5295 5292 5289 5287 5287 5286 5286 5284 5284 5285 5285 5285 5283 5284 5279 5273 5267 5264 5257 5254 5246 5233 5225 5221 5215 5207 5192 5183 5172
5348 5347 5345 5341 5336 5331 5328 5324 5320 5316 5311 5309 5305 5300 5296 5291 5287 5286 5287 5286 5278 5278 5279 5280 5280 5278 5274 5273 5270 5266 5261 5256 5251 5244 5237 5225 5219 5214 5208 5197 5186 5176 5167 5159
5341 5339 5339 5337 5332 5326 5321 5318 5316 5314 5310 5306 5300 5296 5292 5285 5281 5279 5278 5279 5273 5273 5274 5271 5268 5266 5263 5262 5257 5253 5249 5243 5237 5228 5221 5217 5211 5202 5191 5181 5172 5167 5156 5147
5335 5332 5330 5328 5326 5321 5317 5312 5308 5306 5304 5299 5295 5292 5291 5285 5282 5281 5275 5267 5266 5263 5264 5261 5256 5256 5254 5250 5246 5243 5238 5232 5224 5217 5210 5203 5197 5185 5181 5173 5165 5154 5145 5132
5331 5327 5323 5320 5317 5316 5312 5305 5301 5295 5291 5287 5285 5283 5283 5278 5272 5267 5263 5259 5257 5257 5255 5251 5248 5248 5247 5242 5239 5233 5226 5219 5212 5208 5205 5194 5184 5179 5173 5164 5155 5145 5132 5121
5326 5322 5318 5315 5311 5306 5302 5298 5295 5291 5287 5284 5280 5276 5273 5270 5269 5258 5255 5250 5248 5248 5247 5245 5243 5241 5238 5232 5227 5223 5216 5212 5208 5201 5194 5184 5180 5174 5166 5156 5146 5135 5125 5115
5325 5321 5316 5311 5307 5301 5297 5293 5289 5283 5279 5273 5268 5265 5262 5260 5256 5253 5248 5244 5242 5242 5239 5235 5234 5231 5228 5225 5221 5218 5213 5205 5198 5193 5184 5181 5175 5168 5159 5150 5141 5131 5121 5110
5322 5317 5313 5307 5302 5297 5293 5289 5284 5278 5273 5268 5262 5256 5253 5251 5247 5245 5242 5239 5236 5233 5229 5226 5225 5223 5224 5220 5216 5211 5204 5198 5194 5186 5181 5176 5169 5161 5153 5146 5137 5128 5118 5108